Time,TemperatureF,DewpointF,PressureIn,WindDirection,WindDirectionDegrees,WindSpeedMPH,WindSpeedGustMPH,Humidity,HourlyPrecipIn,Conditions,Clouds,dailyrainin,SoftwareType,DateUTC
2013-03-29 00:00:00,35.3,24.0,30.31,West,281,0.0,0.0,63,0.00,,---,0.00,VWS V14.00,2013-03-29 04:00:00,
2013-03-29 00:05:00,35.0,24.1,30.31,West,281,0.0,2.0,64,0.00,,---,0.00,VWS V14.00,2013-03-29 04:05:00,
2013-03-29 00:10:00,34.8,24.2,30.31,West,281,1.0,2.0,65,0.00,,---,0.00,VWS V14.00,2013-03-29 04:10:00,
2013-03-29 00:15:00,35.0,24.1,30.31,West,269,0.0,5.0,64,0.00,,---,0.00,VWS V14.00,2013-03-29 04:15:00,
2013-03-29 00:21:00,35.1,24.2,30.31,West,269,0.0,5.0,64,0.00,,---,0.00,VWS V14.00,2013-03-29 04:21:00,
2013-03-29 00:26:00,35.0,24.1,30.31,West,269,0.0,5.0,64,0.00,,---,0.00,VWS V14.00,2013-03-29 04:26:00,
2013-03-29 00:31:00,34.9,24.0,30.31,West,269,0.0,0.0,64,0.00,,---,0.00,VWS V14.00,2013-03-29 04:31:00,
2013-03-29 00:36:00,34.6,24.1,30.31,West,269,0.0,0.0,65,0.00,,---,0.00,VWS V14.00,2013-03-29 04:36:00,
2013-03-29 00:42:00,34.2,24.0,30.31,West,269,0.0,0.0,66,0.00,,---,0.00,VWS V14.00,2013-03-29 04:42:00,
2013-03-29 00:47:00,33.9,23.8,30.31,West,269,0.0,0.0,66,0.00,,---,0.00,VWS V14.00,2013-03-29 04:47:00,
2013-03-29 00:52:00,33.7,23.6,30.31,West,269,0.0,0.0,66,0.00,,---,0.00,VWS V14.00,2013-03-29 04:52:00,
2013-03-29 00:57:00,33.5,23.7,30.31,West,269,0.0,0.0,67,0.00,,---,0.00,VWS V14.00,2013-03-29 04:57:00,
2013-03-29 01:02:00,33.2,23.5,30.31,West,269,0.0,0.0,67,0.00,,---,0.00,VWS V14.00,2013-03-29 05:02:00,
2013-03-29 01:07:00,33.0,23.2,30.31,West,269,0.0,0.0,67,0.00,,---,0.00,VWS V14.00,2013-03-29 05:07:00,
2013-03-29 01:13:00,32.7,23.3,30.31,West,269,0.0,0.0,68,0.00,,---,0.00,VWS V14.00,2013-03-29 05:13:00,
2013-03-29 01:18:00,32.4,23.0,30.31,West,269,0.0,0.0,68,0.00,,---,0.00,VWS V14.00,2013-03-29 05:18:00,
2013-03-29 01:23:00,32.1,23.4,30.31,West,269,0.0,0.0,70,0.00,,---,0.00,VWS V14.00,2013-03-29 05:23:00,
2013-03-29 01:28:00,31.8,23.1,30.31,West,269,0.0,0.0,70,0.00,,---,0.00,VWS V14.00,2013-03-29 05:28:00,
2013-03-29 01:33:00,31.6,23.0,30.31,West,269,0.0,0.0,70,0.00,,---,0.00,VWS V14.00,2013-03-29 05:33:00,
2013-03-29 01:38:00,31.4,22.8,30.31,West,269,0.0,0.0,70,0.00,,---,0.00,VWS V14.00,2013-03-29 05:38:00,
2013-03-29 01:44:00,31.2,23.2,30.31,West,269,0.0,0.0,72,0.00,,---,0.00,VWS V14.00,2013-03-29 05:44:00,
2013-03-29 01:49:00,31.1,23.1,30.31,West,269,0.0,0.0,72,0.00,,---,0.00,VWS V14.00,2013-03-29 05:49:00,
2013-03-29 01:54:00,30.9,23.0,30.31,West,269,0.0,0.0,72,0.00,,---,0.00,VWS V14.00,2013-03-29 05:54:00,
2013-03-29 02:00:00,30.7,22.8,30.31,West,269,0.0,0.0,72,0.00,,---,0.00,VWS V14.00,2013-03-29 06:00:00,
2013-03-29 02:05:00,30.6,23.0,30.31,West,269,0.0,0.0,73,0.00,,---,0.00,VWS V14.00,2013-03-29 06:05:00,
2013-03-29 02:10:00,30.4,22.8,30.31,West,269,0.0,0.0,73,0.00,,---,0.00,VWS V14.00,2013-03-29 06:10:00,
2013-03-29 02:15:00,30.3,22.7,30.31,West,269,0.0,0.0,73,0.00,,---,0.00,VWS V14.00,2013-03-29 06:15:00,
2013-03-29 02:21:00,30.2,22.9,30.31,West,269,0.0,0.0,74,0.00,,---,0.00,VWS V14.00,2013-03-29 06:21:00,
2013-03-29 02:26:00,30.2,22.9,30.31,West,269,0.0,0.0,74,0.00,,---,0.00,VWS V14.00,2013-03-29 06:26:00,
2013-03-29 02:31:00,30.2,22.9,30.31,West,269,0.0,0.0,74,0.00,,---,0.00,VWS V14.00,2013-03-29 06:31:00,
2013-03-29 02:37:00,30.2,22.9,30.31,West,269,0.0,0.0,74,0.00,,---,0.00,VWS V14.00,2013-03-29 06:37:00,
2013-03-29 02:42:00,30.1,22.8,30.31,West,269,0.0,0.0,74,0.00,,---,0.00,VWS V14.00,2013-03-29 06:42:00,
2013-03-29 02:47:00,30.1,23.1,30.31,West,269,0.0,0.0,75,0.00,,---,0.00,VWS V14.00,2013-03-29 06:47:00,
2013-03-29 02:52:00,30.1,23.1,30.31,West,269,0.0,0.0,75,0.00,,---,0.00,VWS V14.00,2013-03-29 06:52:00,
2013-03-29 02:57:00,30.1,22.8,30.31,West,269,0.0,0.0,74,0.00,,---,0.00,VWS V14.00,2013-03-29 06:57:00,
2013-03-29 03:02:00,30.0,22.7,30.31,West,269,0.0,0.0,74,0.00,,---,0.00,VWS V14.00,2013-03-29 07:02:00,
2013-03-29 03:07:00,29.8,22.5,30.31,West,269,0.0,0.0,74,0.00,,---,0.00,VWS V14.00,2013-03-29 07:07:00,
2013-03-29 03:12:00,29.7,22.4,30.31,West,269,0.0,0.0,74,0.00,,---,0.00,VWS V14.00,2013-03-29 07:12:00,
2013-03-29 03:17:00,29.6,22.4,30.31,West,269,0.0,0.0,74,0.00,,---,0.00,VWS V14.00,2013-03-29 07:17:00,
2013-03-29 03:23:00,29.5,22.6,30.31,West,269,0.0,0.0,75,0.00,,---,0.00,VWS V14.00,2013-03-29 07:23:00,
2013-03-29 03:28:00,29.3,22.4,30.31,West,269,0.0,0.0,75,0.00,,---,0.00,VWS V14.00,2013-03-29 07:28:00,
2013-03-29 03:33:00,29.2,22.0,30.31,West,269,0.0,0.0,74,0.00,,---,0.00,VWS V14.00,2013-03-29 07:33:00,
2013-03-29 03:38:00,29.0,22.1,30.31,West,269,0.0,0.0,75,0.00,,---,0.00,VWS V14.00,2013-03-29 07:38:00,
2013-03-29 03:43:00,28.9,22.3,30.31,West,269,0.0,0.0,76,0.00,,---,0.00,VWS V14.00,2013-03-29 07:43:00,
2013-03-29 03:48:00,28.9,22.3,30.31,West,269,0.0,0.0,76,0.00,,---,0.00,VWS V14.00,2013-03-29 07:48:00,
2013-03-29 03:53:00,28.8,22.2,30.31,West,269,0.0,0.0,76,0.00,,---,0.00,VWS V14.00,2013-03-29 07:53:00,
2013-03-29 03:59:00,28.7,22.1,30.31,West,269,0.0,0.0,76,0.00,,---,0.00,VWS V14.00,2013-03-29 07:59:00,
2013-03-29 04:04:00,28.7,22.4,30.31,West,269,0.0,0.0,77,0.00,,---,0.00,VWS V14.00,2013-03-29 08:04:00,
2013-03-29 04:09:00,28.6,22.6,30.30,West,269,0.0,0.0,78,0.00,,---,0.00,VWS V14.00,2013-03-29 08:09:00,
2013-03-29 04:14:00,28.5,22.5,30.30,West,269,0.0,0.0,78,0.00,,---,0.00,VWS V14.00,2013-03-29 08:14:00,
2013-03-29 04:19:00,28.6,22.6,30.30,West,269,0.0,0.0,78,0.00,,---,0.00,VWS V14.00,2013-03-29 08:19:00,
2013-03-29 04:24:00,28.7,22.7,30.30,West,269,0.0,0.0,78,0.00,,---,0.00,VWS V14.00,2013-03-29 08:24:00,
2013-03-29 04:29:00,28.6,22.6,30.30,West,269,0.0,0.0,78,0.00,,---,0.00,VWS V14.00,2013-03-29 08:29:00,
2013-03-29 04:34:00,28.5,22.2,30.30,West,269,0.0,0.0,77,0.00,,---,0.00,VWS V14.00,2013-03-29 08:34:00,
2013-03-29 04:40:00,28.3,22.3,30.30,West,269,0.0,0.0,78,0.00,,---,0.00,VWS V14.00,2013-03-29 08:40:00,
2013-03-29 04:45:00,28.1,22.1,30.30,West,269,0.0,0.0,78,0.00,,---,0.00,VWS V14.00,2013-03-29 08:45:00,
2013-03-29 04:50:00,27.9,21.9,30.30,West,269,0.0,0.0,78,0.00,,---,0.00,VWS V14.00,2013-03-29 08:50:00,
2013-03-29 04:55:00,27.8,22.1,30.30,West,269,0.0,0.0,79,0.00,,---,0.00,VWS V14.00,2013-03-29 08:55:00,
2013-03-29 05:00:00,27.7,22.0,30.30,West,269,0.0,0.0,79,0.00,,---,0.00,VWS V14.00,2013-03-29 09:00:00,
2013-03-29 05:05:00,27.6,22.2,30.30,West,269,0.0,0.0,80,0.00,,---,0.00,VWS V14.00,2013-03-29 09:05:00,
2013-03-29 05:10:00,27.6,22.2,30.30,West,269,0.0,0.0,80,0.00,,---,0.00,VWS V14.00,2013-03-29 09:10:00,
2013-03-29 05:16:00,27.5,22.1,30.30,West,269,0.0,0.0,80,0.00,,---,0.00,VWS V14.00,2013-03-29 09:16:00,
2013-03-29 05:21:00,27.4,22.0,30.29,West,269,0.0,0.0,80,0.00,,---,0.00,VWS V14.00,2013-03-29 09:21:00,
2013-03-29 05:26:00,27.4,22.0,30.29,West,269,0.0,0.0,80,0.00,,---,0.00,VWS V14.00,2013-03-29 09:26:00,
2013-03-29 05:31:00,27.2,21.9,30.30,West,269,0.0,0.0,80,0.00,,---,0.00,VWS V14.00,2013-03-29 09:31:00,
2013-03-29 05:37:00,27.2,22.1,30.30,West,269,0.0,0.0,81,0.00,,---,0.00,VWS V14.00,2013-03-29 09:37:00,
2013-03-29 05:42:00,27.1,22.1,30.29,West,269,0.0,0.0,81,0.00,,---,0.00,VWS V14.00,2013-03-29 09:42:00,
2013-03-29 05:47:00,27.1,22.1,30.29,West,269,0.0,0.0,81,0.00,,---,0.00,VWS V14.00,2013-03-29 09:47:00,
2013-03-29 05:52:00,27.0,22.0,30.29,West,269,0.0,0.0,81,0.00,,---,0.00,VWS V14.00,2013-03-29 09:52:00,
2013-03-29 05:57:00,27.0,22.2,30.29,West,269,0.0,0.0,82,0.00,,---,0.00,VWS V14.00,2013-03-29 09:57:00,
2013-03-29 06:02:00,27.0,22.2,30.29,West,269,0.0,0.0,82,0.00,,---,0.00,VWS V14.00,2013-03-29 10:02:00,
2013-03-29 06:07:00,27.0,22.2,30.29,West,269,0.0,0.0,82,0.00,,---,0.00,VWS V14.00,2013-03-29 10:07:00,
2013-03-29 06:12:00,26.9,22.1,30.29,West,269,0.0,0.0,82,0.00,,---,0.00,VWS V14.00,2013-03-29 10:12:00,
2013-03-29 06:17:00,26.8,22.0,30.29,West,269,0.0,0.0,82,0.00,,---,0.00,VWS V14.00,2013-03-29 10:17:00,
2013-03-29 06:22:00,26.7,22.0,30.29,West,269,0.0,0.0,82,0.00,,---,0.00,VWS V14.00,2013-03-29 10:22:00,
2013-03-29 06:28:00,26.6,21.9,30.29,West,269,0.0,0.0,82,0.00,,---,0.00,VWS V14.00,2013-03-29 10:28:00,
2013-03-29 06:33:00,26.5,21.8,30.29,West,269,0.0,0.0,82,0.00,,---,0.00,VWS V14.00,2013-03-29 10:33:00,
2013-03-29 06:38:00,26.4,21.7,30.29,West,269,0.0,0.0,82,0.00,,---,0.00,VWS V14.00,2013-03-29 10:38:00,
2013-03-29 06:43:00,26.3,21.6,30.29,West,269,0.0,0.0,82,0.00,,---,0.00,VWS V14.00,2013-03-29 10:43:00,
2013-03-29 06:48:00,26.2,21.8,30.29,West,269,0.0,0.0,83,0.00,,---,0.00,VWS V14.00,2013-03-29 10:48:00,
2013-03-29 06:53:00,26.3,21.9,30.29,West,269,0.0,0.0,83,0.00,,---,0.00,VWS V14.00,2013-03-29 10:53:00,
2013-03-29 06:59:00,26.3,21.9,30.29,West,269,0.0,0.0,83,0.00,,---,0.00,VWS V14.00,2013-03-29 10:59:00,
2013-03-29 07:04:00,26.3,21.9,30.29,West,269,0.0,0.0,83,0.00,,---,0.00,VWS V14.00,2013-03-29 11:04:00,
2013-03-29 07:09:00,26.3,21.9,30.29,West,269,0.0,0.0,83,0.00,,---,0.00,VWS V14.00,2013-03-29 11:09:00,
2013-03-29 07:14:00,26.2,21.8,30.29,West,269,0.0,0.0,83,0.00,,---,0.00,VWS V14.00,2013-03-29 11:14:00,
2013-03-29 07:20:00,26.1,21.6,30.29,West,269,0.0,0.0,83,0.00,,---,0.00,VWS V14.00,2013-03-29 11:20:00,
2013-03-29 07:25:00,26.0,21.6,30.29,West,269,0.0,0.0,83,0.00,,---,0.00,VWS V14.00,2013-03-29 11:25:00,
2013-03-29 07:30:00,25.9,21.7,30.29,West,269,0.0,0.0,84,0.00,,---,0.00,VWS V14.00,2013-03-29 11:30:00,
2013-03-29 07:35:00,25.9,21.7,30.30,West,269,0.0,0.0,84,0.00,,---,0.00,VWS V14.00,2013-03-29 11:35:00,
2013-03-29 07:41:00,26.0,21.8,30.29,West,269,0.0,0.0,84,0.00,,---,0.00,VWS V14.00,2013-03-29 11:41:00,
2013-03-29 07:46:00,26.0,21.8,30.29,West,269,0.0,0.0,84,0.00,,---,0.00,VWS V14.00,2013-03-29 11:46:00,
2013-03-29 07:51:00,26.0,21.8,30.30,West,269,0.0,0.0,84,0.00,,---,0.00,VWS V14.00,2013-03-29 11:51:00,
2013-03-29 07:57:00,25.9,21.7,30.30,West,269,0.0,0.0,84,0.00,,---,0.00,VWS V14.00,2013-03-29 11:57:00,
2013-03-29 08:02:00,26.0,22.1,30.30,West,269,0.0,0.0,85,0.00,,---,0.00,VWS V14.00,2013-03-29 12:02:00,
2013-03-29 08:07:00,25.9,22.0,30.30,West,269,0.0,0.0,85,0.00,,---,0.00,VWS V14.00,2013-03-29 12:07:00,
2013-03-29 08:12:00,26.0,22.1,30.30,West,269,0.0,0.0,85,0.00,,---,0.00,VWS V14.00,2013-03-29 12:12:00,
2013-03-29 08:17:00,26.0,22.1,30.31,West,269,0.0,0.0,85,0.00,,---,0.00,VWS V14.00,2013-03-29 12:17:00,
2013-03-29 08:23:00,26.1,22.2,30.31,West,269,0.0,0.0,85,0.00,,---,0.00,VWS V14.00,2013-03-29 12:23:00,
2013-03-29 08:28:00,26.3,22.7,30.31,West,269,0.0,0.0,86,0.00,,---,0.00,VWS V14.00,2013-03-29 12:28:00,
2013-03-29 08:33:00,26.6,22.7,30.31,West,269,0.0,0.0,85,0.00,,---,0.00,VWS V14.00,2013-03-29 12:33:00,
2013-03-29 08:38:00,26.8,22.9,30.31,West,269,0.0,0.0,85,0.00,,---,0.00,VWS V14.00,2013-03-29 12:38:00,
2013-03-29 08:43:00,27.1,23.2,30.31,West,269,0.0,0.0,85,0.00,,---,0.00,VWS V14.00,2013-03-29 12:43:00,
2013-03-29 08:49:00,27.4,23.5,30.31,West,269,0.0,0.0,85,0.00,,---,0.00,VWS V14.00,2013-03-29 12:49:00,
2013-03-29 08:54:00,27.9,23.7,30.31,West,269,0.0,0.0,84,0.00,,---,0.00,VWS V14.00,2013-03-29 12:54:00,
2013-03-29 08:59:00,28.4,23.9,30.31,West,269,0.0,0.0,83,0.00,,---,0.00,VWS V14.00,2013-03-29 12:59:00,
2013-03-29 09:04:00,29.1,24.6,30.31,West,269,0.0,0.0,83,0.00,,---,0.00,VWS V14.00,2013-03-29 13:04:00,
2013-03-29 09:09:00,29.9,25.1,30.31,West,269,0.0,0.0,82,0.00,,---,0.00,VWS V14.00,2013-03-29 13:09:00,
2013-03-29 09:15:00,30.8,25.1,30.31,West,269,0.0,0.0,79,0.00,,---,0.00,VWS V14.00,2013-03-29 13:15:00,
2013-03-29 09:20:00,31.7,25.3,30.31,West,269,0.0,0.0,77,0.00,,---,0.00,VWS V14.00,2013-03-29 13:20:00,
2013-03-29 09:25:00,32.7,25.3,30.31,West,269,0.0,1.0,74,0.00,,---,0.00,VWS V14.00,2013-03-29 13:25:00,
2013-03-29 09:30:00,33.7,25.6,30.31,West,269,0.0,1.0,72,0.00,,---,0.00,VWS V14.00,2013-03-29 13:30:00,
2013-03-29 09:36:00,34.5,25.7,30.31,West,269,0.0,2.0,70,0.00,,---,0.00,VWS V14.00,2013-03-29 13:36:00,
2013-03-29 09:41:00,35.1,26.3,30.32,West,269,0.0,2.0,70,0.00,,---,0.00,VWS V14.00,2013-03-29 13:41:00,
2013-03-29 09:47:00,35.7,25.5,30.31,West,269,0.0,2.0,66,0.00,,---,0.00,VWS V14.00,2013-03-29 13:47:00,
2013-03-29 09:52:00,36.4,26.1,30.32,West,269,0.0,2.0,66,0.00,,---,0.00,VWS V14.00,2013-03-29 13:52:00,
2013-03-29 09:57:00,37.0,26.0,30.31,West,269,0.0,2.0,64,0.00,,---,0.00,VWS V14.00,2013-03-29 13:57:00,
2013-03-29 10:02:00,37.5,25.3,30.31,West,269,2.0,2.0,61,0.00,,---,0.00,VWS V14.00,2013-03-29 14:02:00,
2013-03-29 10:07:00,38.1,25.9,30.31,West,270,0.0,4.0,61,0.00,,---,0.00,VWS V14.00,2013-03-29 14:07:00,
2013-03-29 10:12:00,38.7,24.4,30.32,West,269,1.0,4.0,56,0.00,,---,0.00,VWS V14.00,2013-03-29 14:12:00,
2013-03-29 10:17:00,39.1,24.3,30.32,West,274,0.0,4.0,55,0.00,,---,0.00,VWS V14.00,2013-03-29 14:17:00,
2013-03-29 10:23:00,39.6,24.8,30.32,West,274,0.0,4.0,55,0.00,,---,0.00,VWS V14.00,2013-03-29 14:23:00,
2013-03-29 10:28:00,40.0,25.1,30.32,West,274,0.0,4.0,55,0.00,,---,0.00,VWS V14.00,2013-03-29 14:28:00,
2013-03-29 10:33:00,40.7,24.0,30.32,West,274,0.0,1.0,51,0.00,,---,0.00,VWS V14.00,2013-03-29 14:33:00,
2013-03-29 10:38:00,41.0,23.3,30.32,NW,315,2.0,4.0,49,0.00,,---,0.00,VWS V14.00,2013-03-29 14:38:00,
2013-03-29 10:43:00,41.2,23.5,30.32,NNW,340,2.0,4.0,49,0.00,,---,0.00,VWS V14.00,2013-03-29 14:43:00,
2013-03-29 10:49:00,41.3,23.6,30.32,NNW,340,0.0,4.0,49,0.00,,---,0.00,VWS V14.00,2013-03-29 14:49:00,
2013-03-29 10:54:00,41.7,24.0,30.32,NNW,340,1.0,4.0,49,0.00,,---,0.00,VWS V14.00,2013-03-29 14:54:00,
2013-03-29 10:59:00,41.9,24.1,30.32,WNW,282,1.0,4.0,49,0.00,,---,0.00,VWS V14.00,2013-03-29 14:59:00,
2013-03-29 11:04:00,42.0,24.2,30.32,West,272,0.0,4.0,49,0.00,,---,0.00,VWS V14.00,2013-03-29 15:04:00,
2013-03-29 11:09:00,42.4,24.6,30.32,West,275,0.0,4.0,49,0.00,,---,0.00,VWS V14.00,2013-03-29 15:09:00,
2013-03-29 11:15:00,42.9,25.6,30.32,WNW,286,2.0,5.0,50,0.00,,---,0.00,VWS V14.00,2013-03-29 15:15:00,
2013-03-29 11:20:00,43.1,23.7,30.32,NNW,336,0.0,5.0,46,0.00,,---,0.00,VWS V14.00,2013-03-29 15:20:00,
2013-03-29 11:25:00,43.4,25.5,30.32,NNW,338,0.0,5.0,49,0.00,,---,0.00,VWS V14.00,2013-03-29 15:25:00,
2013-03-29 11:30:00,43.6,24.2,30.32,West,270,1.0,5.0,46,0.00,,---,0.00,VWS V14.00,2013-03-29 15:30:00,
2013-03-29 11:35:00,43.8,24.9,30.32,NNW,340,4.0,5.0,47,0.00,,---,0.00,VWS V14.00,2013-03-29 15:35:00,
2013-03-29 11:40:00,43.9,24.5,30.32,NNW,342,0.0,6.0,46,0.00,,---,0.00,VWS V14.00,2013-03-29 15:40:00,
2013-03-29 11:45:00,44.0,24.6,30.32,NNW,343,0.0,6.0,46,0.00,,---,0.00,VWS V14.00,2013-03-29 15:45:00,
2013-03-29 11:50:00,44.0,24.0,30.32,NNW,335,0.0,6.0,45,0.00,,---,0.00,VWS V14.00,2013-03-29 15:50:00,
2013-03-29 11:55:00,44.1,24.1,30.32,NNW,338,0.0,6.0,45,0.00,,---,0.00,VWS V14.00,2013-03-29 15:55:00,
2013-03-29 12:01:00,44.5,25.0,30.31,North,360,4.0,5.0,46,0.00,,---,0.00,VWS V14.00,2013-03-29 16:01:00,
2013-03-29 12:07:00,44.6,25.1,30.31,NNW,340,0.0,6.0,46,0.00,,---,0.00,VWS V14.00,2013-03-29 16:07:00,
2013-03-29 12:12:00,45.1,25.6,30.31,NW,313,0.0,6.0,46,0.00,,---,0.00,VWS V14.00,2013-03-29 16:12:00,
2013-03-29 12:17:00,45.6,25.0,30.31,WSW,253,3.0,6.0,44,0.00,,---,0.00,VWS V14.00,2013-03-29 16:17:00,
2013-03-29 12:22:00,45.7,24.5,30.31,NW,304,5.0,8.0,43,0.00,,---,0.00,VWS V14.00,2013-03-29 16:22:00,
2013-03-29 12:28:00,45.7,25.0,30.30,WNW,295,1.0,8.0,44,0.00,,---,0.00,VWS V14.00,2013-03-29 16:28:00,
2013-03-29 12:33:00,45.9,25.2,30.30,West,267,2.0,7.0,44,0.00,,---,0.00,VWS V14.00,2013-03-29 16:33:00,
2013-03-29 12:38:00,46.2,26.0,30.30,West,267,5.0,8.0,45,0.00,,---,0.00,VWS V14.00,2013-03-29 16:38:00,
2013-03-29 12:43:00,46.3,23.3,30.30,NNW,339,0.0,8.0,40,0.00,,---,0.00,VWS V14.00,2013-03-29 16:43:00,
2013-03-29 12:48:00,46.5,24.7,30.30,WNW,301,5.0,10.0,42,0.00,,---,0.00,VWS V14.00,2013-03-29 16:48:00,
2013-03-29 12:54:00,46.8,26.0,30.30,WSW,248,6.0,10.0,44,0.00,,---,0.00,VWS V14.00,2013-03-29 16:54:00,
2013-03-29 12:59:00,46.7,24.3,30.30,WSW,244,1.0,10.0,41,0.00,,---,0.00,VWS V14.00,2013-03-29 16:59:00,
2013-03-29 13:04:00,47.0,25.1,30.30,WNW,283,2.0,7.0,42,0.00,,---,0.00,VWS V14.00,2013-03-29 17:04:00,
2013-03-29 13:09:00,47.2,24.1,30.30,WNW,299,0.0,7.0,40,0.00,,---,0.00,VWS V14.00,2013-03-29 17:09:00,
2013-03-29 13:14:00,46.9,23.9,30.29,WNW,290,0.0,9.0,40,0.00,,---,0.00,VWS V14.00,2013-03-29 17:14:00,
2013-03-29 13:19:00,47.1,24.6,30.29,West,261,2.0,9.0,41,0.00,,---,0.00,VWS V14.00,2013-03-29 17:19:00,
2013-03-29 13:24:00,47.6,23.3,30.29,North,355,6.0,10.0,38,0.00,,---,0.00,VWS V14.00,2013-03-29 17:24:00,
2013-03-29 13:30:00,47.3,23.0,30.29,NNW,331,6.0,10.0,38,0.00,,---,0.00,VWS V14.00,2013-03-29 17:30:00,
2013-03-29 13:35:00,47.8,23.4,30.29,West,269,0.0,6.0,38,0.00,,---,0.00,VWS V14.00,2013-03-29 17:35:00,
2013-03-29 13:40:00,48.0,23.0,30.28,West,272,5.0,8.0,37,0.00,,---,0.00,VWS V14.00,2013-03-29 17:40:00,
2013-03-29 13:45:00,48.3,23.3,30.28,NNW,333,5.0,8.0,37,0.00,,---,0.00,VWS V14.00,2013-03-29 17:45:00,
2013-03-29 13:50:00,48.4,22.0,30.28,NNW,344,6.0,8.0,35,0.00,,---,0.00,VWS V14.00,2013-03-29 17:50:00,
2013-03-29 13:56:00,48.2,23.2,30.28,NNE,22,1.0,8.0,37,0.00,,---,0.00,VWS V14.00,2013-03-29 17:56:00,
2013-03-29 14:01:00,48.6,22.2,30.27,North,351,1.0,2.0,35,0.00,,---,0.00,VWS V14.00,2013-03-29 18:01:00,
2013-03-29 14:06:00,48.8,23.7,30.27,NW,308,2.0,8.0,37,0.00,,---,0.00,VWS V14.00,2013-03-29 18:06:00,
2013-03-29 14:11:00,48.8,24.3,30.27,West,281,1.0,8.0,38,0.00,,---,0.00,VWS V14.00,2013-03-29 18:11:00,
2013-03-29 14:16:00,48.6,22.2,30.27,West,273,4.0,8.0,35,0.00,,---,0.00,VWS V14.00,2013-03-29 18:16:00,
2013-03-29 14:21:00,48.7,22.3,30.27,WNW,301,5.0,11.0,35,0.00,,---,0.00,VWS V14.00,2013-03-29 18:21:00,
2013-03-29 14:27:00,48.8,22.4,30.27,NNW,340,6.0,11.0,35,0.00,,---,0.00,VWS V14.00,2013-03-29 18:27:00,
2013-03-29 14:32:00,48.9,21.8,30.26,NW,321,4.0,6.0,34,0.00,,---,0.00,VWS V14.00,2013-03-29 18:32:00,
2013-03-29 14:37:00,49.1,22.0,30.26,NW,325,0.0,6.0,34,0.00,,---,0.00,VWS V14.00,2013-03-29 18:37:00,
2013-03-29 14:43:00,49.3,23.5,30.26,NW,326,1.0,9.0,36,0.00,,---,0.00,VWS V14.00,2013-03-29 18:43:00,
2013-03-29 14:48:00,49.6,23.1,30.26,WNW,284,4.0,9.0,35,0.00,,---,0.00,VWS V14.00,2013-03-29 18:48:00,
2013-03-29 14:53:00,49.5,23.7,30.25,West,265,4.0,9.0,36,0.00,,---,0.00,VWS V14.00,2013-03-29 18:53:00,
2013-03-29 14:58:00,49.4,22.9,30.25,WNW,298,1.0,9.0,35,0.00,,---,0.00,VWS V14.00,2013-03-29 18:58:00,
2013-03-29 15:03:00,49.4,24.9,30.25,NW,306,4.0,6.0,38,0.00,,---,0.00,VWS V14.00,2013-03-29 19:03:00,
2013-03-29 15:08:00,49.8,23.9,30.25,West,274,6.0,10.0,36,0.00,,---,0.00,VWS V14.00,2013-03-29 19:08:00,
2013-03-29 15:13:00,50.0,25.4,30.25,WNW,287,4.0,10.0,38,0.00,,---,0.00,VWS V14.00,2013-03-29 19:13:00,
2013-03-29 15:19:00,50.2,25.0,30.25,WSW,248,6.0,10.0,37,0.00,,---,0.00,VWS V14.00,2013-03-29 19:19:00,
2013-03-29 15:24:00,50.5,23.2,30.25,NNW,341,4.0,10.0,34,0.00,,---,0.00,VWS V14.00,2013-03-29 19:24:00,
2013-03-29 15:29:00,50.3,23.0,30.25,NW,313,4.0,10.0,34,0.00,,---,0.00,VWS V14.00,2013-03-29 19:29:00,
2013-03-29 15:34:00,50.3,24.4,30.25,West,268,5.0,7.0,36,0.00,,---,0.00,VWS V14.00,2013-03-29 19:34:00,
2013-03-29 15:40:00,50.3,24.4,30.24,NNW,341,0.0,7.0,36,0.00,,---,0.00,VWS V14.00,2013-03-29 19:40:00,
2013-03-29 15:45:00,50.7,23.4,30.24,WSW,252,2.0,7.0,34,0.00,,---,0.00,VWS V14.00,2013-03-29 19:45:00,
2013-03-29 15:50:00,50.5,25.9,30.24,WSW,251,6.0,13.0,38,0.00,,---,0.00,VWS V14.00,2013-03-29 19:50:00,
2013-03-29 15:55:00,50.6,24.0,30.24,WNW,284,4.0,13.0,35,0.00,,---,0.00,VWS V14.00,2013-03-29 19:55:00,
2013-03-29 16:01:00,50.7,24.1,30.24,West,279,1.0,4.0,35,0.00,,---,0.00,VWS V14.00,2013-03-29 20:01:00,
2013-03-29 16:06:00,51.0,22.9,30.24,WNW,287,1.0,8.0,33,0.00,,---,0.00,VWS V14.00,2013-03-29 20:06:00,
2013-03-29 16:11:00,51.0,22.9,30.23,NW,315,0.0,8.0,33,0.00,,---,0.00,VWS V14.00,2013-03-29 20:11:00,
2013-03-29 16:16:00,51.2,23.1,30.24,NW,318,2.0,8.0,33,0.00,,---,0.00,VWS V14.00,2013-03-29 20:16:00,
2013-03-29 16:21:00,51.0,22.9,30.23,NW,324,5.0,10.0,33,0.00,,---,0.00,VWS V14.00,2013-03-29 20:21:00,
2013-03-29 16:27:00,51.2,23.1,30.23,NW,314,2.0,10.0,33,0.00,,---,0.00,VWS V14.00,2013-03-29 20:27:00,
2013-03-29 16:32:00,51.7,25.0,30.23,WNW,289,4.0,8.0,35,0.00,,---,0.00,VWS V14.00,2013-03-29 20:32:00,
2013-03-29 16:37:00,51.7,25.0,30.23,WNW,294,4.0,8.0,35,0.00,,---,0.00,VWS V14.00,2013-03-29 20:37:00,
2013-03-29 16:42:00,51.5,23.4,30.23,West,277,4.0,8.0,33,0.00,,---,0.00,VWS V14.00,2013-03-29 20:42:00,
2013-03-29 16:47:00,51.4,23.3,30.22,West,263,1.0,8.0,33,0.00,,---,0.00,VWS V14.00,2013-03-29 20:47:00,
2013-03-29 16:53:00,51.5,24.1,30.22,NNW,338,4.0,8.0,34,0.00,,---,0.00,VWS V14.00,2013-03-29 20:53:00,
2013-03-29 16:58:00,51.6,23.5,30.22,NW,310,0.0,8.0,33,0.00,,---,0.00,VWS V14.00,2013-03-29 20:58:00,
2013-03-29 17:03:00,51.5,23.4,30.22,WNW,294,0.0,4.0,33,0.00,,---,0.00,VWS V14.00,2013-03-29 21:03:00,
2013-03-29 17:08:00,51.6,23.5,30.22,WNW,292,2.0,8.0,33,0.00,,---,0.00,VWS V14.00,2013-03-29 21:08:00,
2013-03-29 17:13:00,51.5,23.4,30.22,NW,308,7.0,8.0,33,0.00,,---,0.00,VWS V14.00,2013-03-29 21:13:00,
2013-03-29 17:18:00,51.5,22.6,30.22,WNW,292,1.0,9.0,32,0.00,,---,0.00,VWS V14.00,2013-03-29 21:18:00,
2013-03-29 17:24:00,51.7,23.5,30.22,WNW,300,4.0,9.0,33,0.00,,---,0.00,VWS V14.00,2013-03-29 21:24:00,
2013-03-29 17:29:00,51.8,23.6,30.22,WNW,300,4.0,9.0,33,0.00,,---,0.00,VWS V14.00,2013-03-29 21:29:00,
2013-03-29 17:34:00,51.8,22.1,30.21,NW,306,2.0,5.0,31,0.00,,---,0.00,VWS V14.00,2013-03-29 21:34:00,
2013-03-29 17:39:00,51.8,23.6,30.22,West,259,10.0,10.0,33,0.00,,---,0.00,VWS V14.00,2013-03-29 21:39:00,
2013-03-29 17:44:00,52.0,22.3,30.21,West,259,6.0,11.0,31,0.00,,---,0.00,VWS V14.00,2013-03-29 21:44:00,
2013-03-29 17:49:00,51.8,22.1,30.21,NNW,334,1.0,11.0,31,0.00,,---,0.00,VWS V14.00,2013-03-29 21:49:00,
2013-03-29 17:54:00,51.7,22.1,30.21,NW,312,1.0,11.0,31,0.00,,---,0.00,VWS V14.00,2013-03-29 21:54:00,
2013-03-29 18:00:00,51.7,22.8,30.21,WNW,297,1.0,11.0,32,0.00,,---,0.00,VWS V14.00,2013-03-29 22:00:00,
2013-03-29 18:05:00,51.6,22.7,30.21,WNW,298,5.0,7.0,32,0.00,,---,0.00,VWS V14.00,2013-03-29 22:05:00,
2013-03-29 18:10:00,51.5,22.6,30.21,WNW,298,5.0,7.0,32,0.00,,---,0.00,VWS V14.00,2013-03-29 22:10:00,
2013-03-29 18:15:00,51.5,22.6,30.22,NW,304,4.0,7.0,32,0.00,,---,0.00,VWS V14.00,2013-03-29 22:15:00,
2013-03-29 18:20:00,51.4,22.5,30.21,NW,319,4.0,7.0,32,0.00,,---,0.00,VWS V14.00,2013-03-29 22:20:00,
2013-03-29 18:26:00,51.4,22.5,30.21,WNW,298,2.0,7.0,32,0.00,,---,0.00,VWS V14.00,2013-03-29 22:26:00,
2013-03-29 18:31:00,51.3,21.7,30.21,WSW,251,3.0,5.0,31,0.00,,---,0.00,VWS V14.00,2013-03-29 22:31:00,
2013-03-29 18:37:00,51.2,23.1,30.21,WNW,302,2.0,5.0,33,0.00,,---,0.00,VWS V14.00,2013-03-29 22:37:00,
2013-03-29 18:42:00,51.2,23.1,30.21,WNW,296,4.0,5.0,33,0.00,,---,0.00,VWS V14.00,2013-03-29 22:42:00,
2013-03-29 18:47:00,51.0,22.9,30.21,WNW,299,2.0,7.0,33,0.00,,---,0.00,VWS V14.00,2013-03-29 22:47:00,
2013-03-29 18:52:00,50.9,22.8,30.21,NNW,342,1.0,7.0,33,0.00,,---,0.00,VWS V14.00,2013-03-29 22:52:00,
2013-03-29 18:58:00,50.7,21.9,30.21,North,350,4.0,7.0,32,0.00,,---,0.00,VWS V14.00,2013-03-29 22:58:00,
2013-03-29 19:03:00,50.5,21.8,30.21,NW,313,1.0,6.0,32,0.00,,---,0.00,VWS V14.00,2013-03-29 23:03:00,
2013-03-29 19:08:00,50.3,21.6,30.21,WNW,293,2.0,7.0,32,0.00,,---,0.00,VWS V14.00,2013-03-29 23:08:00,
2013-03-29 19:13:00,50.0,21.3,30.21,NW,304,2.0,7.0,32,0.00,,---,0.00,VWS V14.00,2013-03-29 23:13:00,
2013-03-29 19:18:00,49.8,21.9,30.21,WNW,292,1.0,7.0,33,0.00,,---,0.00,VWS V14.00,2013-03-29 23:18:00,
2013-03-29 19:24:00,49.6,21.7,30.21,WNW,289,0.0,7.0,33,0.00,,---,0.00,VWS V14.00,2013-03-29 23:24:00,
2013-03-29 19:29:00,49.5,20.9,30.22,WNW,292,2.0,7.0,32,0.00,,---,0.00,VWS V14.00,2013-03-29 23:29:00,
2013-03-29 19:34:00,49.3,20.7,30.22,WNW,301,2.0,5.0,32,0.00,,---,0.00,VWS V14.00,2013-03-29 23:34:00,
2013-03-29 19:39:00,49.0,20.4,30.22,WNW,302,2.0,6.0,32,0.00,,---,0.00,VWS V14.00,2013-03-29 23:39:00,
2013-03-29 19:45:00,48.7,20.9,30.21,NW,305,0.0,6.0,33,0.00,,---,0.00,VWS V14.00,2013-03-29 23:45:00,
2013-03-29 19:50:00,48.3,20.5,30.21,WNW,294,0.0,6.0,33,0.00,,---,0.00,VWS V14.00,2013-03-29 23:50:00,
2013-03-29 19:55:00,47.9,20.9,30.22,WNW,294,0.0,6.0,34,0.00,,---,0.00,VWS V14.00,2013-03-29 23:55:00,
2013-03-29 20:00:00,47.6,21.3,30.22,WNW,294,1.0,1.0,35,0.00,,---,0.00,VWS V14.00,2013-03-30 00:00:00,
2013-03-29 20:05:00,47.2,21.0,30.22,WNW,294,0.0,1.0,35,0.00,,---,0.00,VWS V14.00,2013-03-30 00:05:00,
2013-03-29 20:12:00,46.8,21.3,30.22,WNW,294,0.0,1.0,36,0.00,,---,0.00,VWS V14.00,2013-03-30 00:12:00,
2013-03-29 20:17:00,46.4,20.9,30.22,WNW,294,0.0,4.0,36,0.00,,---,0.00,VWS V14.00,2013-03-30 00:17:00,
2013-03-29 20:22:00,46.2,21.4,30.22,WNW,294,1.0,4.0,37,0.00,,---,0.00,VWS V14.00,2013-03-30 00:22:00,
2013-03-29 20:27:00,45.9,21.7,30.22,WNW,294,0.0,4.0,38,0.00,,---,0.00,VWS V14.00,2013-03-30 00:27:00,
2013-03-29 20:33:00,45.5,22.0,30.23,WNW,294,0.0,0.0,39,0.00,,---,0.00,VWS V14.00,2013-03-30 00:33:00,
2013-03-29 20:38:00,45.1,21.6,30.23,WNW,294,0.0,1.0,39,0.00,,---,0.00,VWS V14.00,2013-03-30 00:38:00,
2013-03-29 20:43:00,44.8,22.0,30.23,WNW,294,0.0,1.0,40,0.00,,---,0.00,VWS V14.00,2013-03-30 00:43:00,
2013-03-29 20:48:00,44.6,21.8,30.23,WNW,294,0.0,1.0,40,0.00,,---,0.00,VWS V14.00,2013-03-30 00:48:00,
2013-03-29 20:54:00,44.3,22.1,30.24,WNW,294,0.0,2.0,41,0.00,,---,0.00,VWS V14.00,2013-03-30 00:54:00,
2013-03-29 20:59:00,44.2,22.6,30.24,WNW,294,0.0,4.0,42,0.00,,---,0.00,VWS V14.00,2013-03-30 00:59:00,
2013-03-29 21:04:00,44.0,22.4,30.24,WNW,294,1.0,4.0,42,0.00,,---,0.00,VWS V14.00,2013-03-30 01:04:00,
2013-03-29 21:09:00,44.0,21.8,30.23,WNW,294,0.0,4.0,41,0.00,,---,0.00,VWS V14.00,2013-03-30 01:09:00,
2013-03-29 21:15:00,44.0,22.4,30.24,WNW,294,0.0,4.0,42,0.00,,---,0.00,VWS V14.00,2013-03-30 01:15:00,
2013-03-29 21:20:00,43.8,22.2,30.24,WNW,294,0.0,4.0,42,0.00,,---,0.00,VWS V14.00,2013-03-30 01:20:00,
2013-03-29 21:25:00,43.5,22.5,30.24,WNW,294,1.0,4.0,43,0.00,,---,0.00,VWS V14.00,2013-03-30 01:25:00,
2013-03-29 21:30:00,43.1,22.1,30.24,WNW,294,0.0,1.0,43,0.00,,---,0.00,VWS V14.00,2013-03-30 01:30:00,
2013-03-29 21:36:00,43.0,22.0,30.24,WNW,294,0.0,2.0,43,0.00,,---,0.00,VWS V14.00,2013-03-30 01:36:00,
2013-03-29 21:42:00,42.9,22.5,30.24,WNW,294,0.0,2.0,44,0.00,,---,0.00,VWS V14.00,2013-03-30 01:42:00,
2013-03-29 21:47:00,42.6,22.2,30.24,WNW,294,0.0,2.0,44,0.00,,---,0.00,VWS V14.00,2013-03-30 01:47:00,
2013-03-29 21:52:00,42.5,22.1,30.24,WNW,294,0.0,2.0,44,0.00,,---,0.00,VWS V14.00,2013-03-30 01:52:00,
2013-03-29 21:57:00,42.4,22.0,30.24,WNW,294,0.0,2.0,44,0.00,,---,0.00,VWS V14.00,2013-03-30 01:57:00,
2013-03-29 22:02:00,42.2,21.9,30.24,WNW,294,0.0,0.0,44,0.00,,---,0.00,VWS V14.00,2013-03-30 02:02:00,
2013-03-29 22:08:00,42.0,22.2,30.24,WNW,294,0.0,0.0,45,0.00,,---,0.00,VWS V14.00,2013-03-30 02:08:00,
2013-03-29 22:13:00,41.8,22.0,30.24,WNW,294,0.0,1.0,45,0.00,,---,0.00,VWS V14.00,2013-03-30 02:13:00,
2013-03-29 22:18:00,41.5,22.3,30.25,WNW,294,0.0,1.0,46,0.00,,---,0.00,VWS V14.00,2013-03-30 02:18:00,
2013-03-29 22:23:00,41.1,22.4,30.25,WNW,294,0.0,1.0,47,0.00,,---,0.00,VWS V14.00,2013-03-30 02:23:00,
2013-03-29 22:29:00,40.7,22.1,30.25,WNW,294,0.0,1.0,47,0.00,,---,0.00,VWS V14.00,2013-03-30 02:29:00,
2013-03-29 22:34:00,40.4,22.3,30.25,WNW,294,0.0,0.0,48,0.00,,---,0.00,VWS V14.00,2013-03-30 02:34:00,
2013-03-29 22:39:00,39.9,22.3,30.25,WNW,294,0.0,0.0,49,0.00,,---,0.00,VWS V14.00,2013-03-30 02:39:00,
2013-03-29 22:44:00,39.6,22.5,30.25,WNW,294,0.0,0.0,50,0.00,,---,0.00,VWS V14.00,2013-03-30 02:44:00,
2013-03-29 22:50:00,39.1,22.0,30.25,WNW,295,0.0,0.0,50,0.00,,---,0.00,VWS V14.00,2013-03-30 02:50:00,
2013-03-29 22:55:00,38.8,22.2,30.25,WNW,294,0.0,0.0,51,0.00,,---,0.00,VWS V14.00,2013-03-30 02:55:00,
2013-03-29 23:00:00,38.4,22.3,30.25,WNW,294,0.0,0.0,52,0.00,,---,0.00,VWS V14.00,2013-03-30 03:00:00,
2013-03-29 23:05:00,38.1,22.0,30.25,WNW,294,0.0,0.0,52,0.00,,---,0.00,VWS V14.00,2013-03-30 03:05:00,
2013-03-29 23:10:00,37.8,22.2,30.25,WNW,294,0.0,0.0,53,0.00,,---,0.00,VWS V14.00,2013-03-30 03:10:00,
2013-03-29 23:16:00,37.5,21.9,30.25,WNW,294,0.0,0.0,53,0.00,,---,0.00,VWS V14.00,2013-03-30 03:16:00,
2013-03-29 23:21:00,37.2,22.1,30.25,WNW,294,0.0,0.0,54,0.00,,---,0.00,VWS V14.00,2013-03-30 03:21:00,
2013-03-29 23:27:00,37.0,21.9,30.25,WNW,294,0.0,0.0,54,0.00,,---,0.00,VWS V14.00,2013-03-30 03:27:00,
2013-03-29 23:32:00,36.7,21.6,30.25,WNW,294,0.0,0.0,54,0.00,,---,0.00,VWS V14.00,2013-03-30 03:32:00,
2013-03-29 23:37:00,36.4,21.4,30.25,WNW,294,0.0,0.0,54,0.00,,---,0.00,VWS V14.00,2013-03-30 03:37:00,
2013-03-29 23:42:00,36.1,21.5,30.25,WNW,294,0.0,0.0,55,0.00,,---,0.00,VWS V14.00,2013-03-30 03:42:00,
2013-03-29 23:47:00,35.9,21.8,30.24,WNW,294,0.0,0.0,56,0.00,,---,0.00,VWS V14.00,2013-03-30 03:47:00,
2013-03-29 23:52:00,35.7,22.0,30.25,WNW,294,0.0,0.0,57,0.00,,---,0.00,VWS V14.00,2013-03-30 03:52:00,
2013-03-29 23:57:00,35.6,21.5,30.24,WNW,294,0.0,0.0,56,0.00,,---,0.00,VWS V14.00,2013-03-30 03:57:00,